Regional Weather Roundup
Issued by NWS

Home | Current Version | Previous Version | Text Only | Print | Product List | Glossary Off
Versions: 1 2 3 4 5 6 7 8 9 10 11 12 13 14 15 16 17 18 19 20 21 22 23 24 25 26 27 28 29 30 31 32 33 34 35 36 37 38 39 40 41 42 43 44 45 46 47 48 49 50

000
ASUS45 KSLC 051410
RWRUT

UTAH REGIONAL WEATHER ROUNDUP
NATIONAL WEATHER SERVICE SALT LAKE CITY UT
800 AM MDT THU MAY 05 2016

UTZ001>011-023>025-051500-

NORTHERN UTAH

CITY           SKY/WX    TMP DP  RH WIND       PRES   REMARKS
BRIGHAM CITY   CLOUDY    52  43  71 N7        29.95F
HILL AFB       PTSUNNY   59  34  38 E15       29.96F
LOGAN          CLOUDY    49  45  86 CALM      29.99R
OGDEN          CLOUDY    60  37  42 S8        29.94F
PROVO AIRPORT  PTSUNNY   59  34  38 CALM      29.96S
SALT LAKE CITY CLOUDY    67  32  27 S9        29.93R
VERNAL         CLOUDY    54  36  50 CALM      30.12R
WENDOVER       CLOUDY    54  43  66 CALM      29.93R
HEBER CITY     CLOUDY    46  39  76 CALM      30.05S

$$

UTZ012>022-026-027-051500-

SOUTHERN/CENTRAL UTAH

CITY           SKY/WX    TMP DP  RH WIND       PRES   REMARKS
BLANDING       MOSUNNY   62  29  29 CALM      30.23R
BRYCE CANYON   PTSUNNY   44  35  70 CALM      30.14S
CEDAR CITY     PTSUNNY   50  38  63 E3        29.96R
DELTA          CLOUDY    54  37  54 NW3       29.94S
HANKSVILLE     CLOUDY    54  39  58 CALM      30.05S
MILFORD        CLOUDY    49  37  63 CALM      29.95R
MOAB/CYNLANDS  PTSUNNY   66  30  26 E12       30.05R
PRICE          CLOUDY    57  35  43 CALM      30.11R
ST GEORGE      CLOUDY    63  41  45 E5        29.91R

$$

REGIONAL REPORTS     COLORADO/ARIZONA

CITY           SKY/WX    TMP DP  RH WIND       PRES   REMARKS
CRAIG, CO      CLOUDY    45  37  73 VRB5      30.20R
GRAND JUNCTION SUNNY     58  34  40 SE12      30.12R
RIFLE          CLOUDY    48  36  63 NW3       30.20R
MONTROSE       PTSUNNY   56  30  37 S7        30.21R
CORTEZ         SUNNY     53  31  42 CALM      30.18R
PAGE, AZ       PTSUNNY   67  30  25 W5        29.98S
GRAND CANYON   MOSUNNY   42  33  70 CALM      30.10R
KINGMAN        MOSUNNY   65  21  18 SE15      29.91R
FLAGSTAFF      MOSUNNY   39  31  72 CALM      30.14R

$$

REGIONAL REPORTS    NEVADA/IDAHO/WYOMING

CITY           SKY/WX    TMP DP  RH WIND       PRES   REMARKS
LAS VEGAS, NV  PTSUNNY   71  34  25 SE3       29.77R
ELY            PTSUNNY   40  30  67 CALM      29.99R
ELKO           CLOUDY    51  39  63 NE3       29.90S
POCATELLO, ID  CLOUDY    49  43  80 VRB3      29.96R
BURLEY         PTSUNNY   51  43  74 CALM      29.91R
EVANSTON, WY   CLOUDY    53  27  36 E6        30.14R
ROCK SPRINGS   CLOUDY    50  31  48 E3        30.17R
KEMMERER         N/A     46  32  57 N6        30.17S

$$



USA.gov is the U.S. government's official web portal to all federal, state and local government web resources and services.